Buckhannon, WV

11:18 PM EDT on September 19, 2017 (GMT -0400)
Buckhannon

Weather History for KW22 - February, 2013

Change the Weather History Date:

Wednesday, February 27, 2013

  Actual Average (KCKB) Record (KCKB)
Temperature  
Mean Temperature 37 °F -  
Max Temperature 42 °F 45 °F 73 °F (1997)
Min Temperature 32 °F 23 °F -17 °F (1934)
Degree Days  
Heating Degree Days 28    
Moisture  
Dew Point 35 °F    
Average Humidity 90    
Maximum Humidity 100    
Minimum Humidity 70    
Precipitation  
Precipitation 1.10 in - - ()
Sea Level Pressure  
Sea Level Pressure 29.66 in    
Wind  
Wind Speed 9 mph (WSW)    
Max Wind Speed 18 mph    
Max Gust Speed 25 mph    
Visibility 8 miles    
Events Rain , Snow    
Averages and records for this station are not official NWS values.
T = Trace of Precipitation, MM = Missing Value Source: NWS Daily Summary

Daily Weather History Graph

Daily Weather History Graph

Search for Another Location

Airport or City:

Trip Planner

Search our weather history database for the weather conditions in past years. The results will help you decide how hot, cold, wet, or windy it might be!

Date:

Astronomy

Feb. 27, 2013 Rise Set
Actual Time 6:56 AM EST 6:11 PM EST
Civil Twilight 6:29 AM EST 6:38 PM EST
Nautical Twilight 5:58 AM EST 7:09 PM EST
Astronomical Twilight 5:27 AM EST 7:40 PM EST
Moon 8:29 PM EST (2/27) 7:31 AM EST (2/27)
Length of Visible Light 12h 09m
Length of Day
11h 15m
Waning Gibbous, 96% of the Moon is Illuminated
Feb 27
Waning Gibbous
Mar 4
Last Quarter
Mar 11
New
Mar 19
First Quarter
Mar 27
Full

Hourly Weather History & Observations

Time (EST) Temp. Windchill Dew Point Humidity Pressure Visibility Wind Dir Wind Speed Gust Speed Precip Events Conditions
12:15 AM 42.8 °F - 42.8 °F 100% 29.55 in 8.0 mi Calm Calm - N/A   Light Drizzle
12:35 AM 42.8 °F - 42.8 °F 100% 29.55 in 4.0 mi Calm Calm - N/A   Light Drizzle
12:55 AM 42.8 °F - 42.8 °F 100% 29.56 in 2.0 mi Calm Calm - 0.02 in Rain Rain
1:15 AM 41.0 °F 33.1 °F 41.0 °F 100% 29.57 in 5.0 mi West 15.0 mph 18.4 mph 0.02 in Rain Light Rain
1:35 AM 41.0 °F 33.5 °F 41.0 °F 100% 29.57 in 3.0 mi West 13.8 mph 19.6 mph 0.03 in Rain Light Rain
1:55 AM 41.0 °F 35.2 °F 41.0 °F 100% 29.57 in 10.0 mi WSW 9.2 mph - 0.03 in   Overcast
2:15 AM 41.0 °F 35.2 °F 39.2 °F 93% 29.58 in 10.0 mi SW 9.2 mph 17.3 mph N/A   Overcast
2:35 AM 39.2 °F 33.0 °F 39.2 °F 100% 29.58 in 10.0 mi SW 9.2 mph - N/A   Overcast
2:55 AM 39.2 °F 33.6 °F 39.2 °F 100% 29.58 in 10.0 mi SW 8.1 mph - N/A   Overcast
3:15 AM 39.2 °F 34.2 °F 39.2 °F 100% 29.58 in 10.0 mi SW 6.9 mph - N/A   Mostly Cloudy
3:55 AM 39.2 °F 33.6 °F 37.4 °F 93% 29.58 in 7.0 mi SW 8.1 mph - N/A Rain Light Rain
4:15 AM 39.2 °F 33.6 °F 37.4 °F 93% 29.58 in 10.0 mi WSW 8.1 mph - N/A   Light Drizzle
4:35 AM 39.2 °F 33.6 °F 37.4 °F 93% 29.58 in 10.0 mi West 8.1 mph - N/A Rain Light Rain
4:55 AM 39.2 °F 33.6 °F 37.4 °F 93% 29.59 in 10.0 mi WSW 8.1 mph - N/A Rain Light Rain
5:15 AM 39.2 °F 33.0 °F 37.4 °F 93% 29.60 in 10.0 mi WSW 9.2 mph 18.4 mph N/A   Overcast
5:35 AM 37.4 °F 29.8 °F 37.4 °F 100% 29.60 in 9.0 mi WSW 11.5 mph - N/A Rain Light Rain
5:55 AM 37.4 °F 29.8 °F 37.4 °F 100% 29.61 in 10.0 mi WSW 11.5 mph - N/A Rain Light Rain
6:15 AM 37.4 °F 32.1 °F 37.4 °F 100% 29.62 in 9.0 mi SW 6.9 mph - N/A Rain Light Rain
6:35 AM 37.4 °F 30.8 °F 37.4 °F 100% 29.62 in 10.0 mi WSW 9.2 mph - N/A Rain Light Rain
6:55 AM 37.4 °F 28.9 °F 37.4 °F 100% 29.63 in 5.0 mi WSW 13.8 mph 23.0 mph N/A   Overcast
7:15 AM 37.4 °F 27.5 °F 35.6 °F 93% 29.65 in 10.0 mi WSW 18.4 mph 25.3 mph N/A   Overcast
7:35 AM 35.6 °F 26.2 °F 33.8 °F 93% 29.66 in 10.0 mi West 15.0 mph 23.0 mph N/A   Overcast
7:55 AM 37.4 °F 29.8 °F 33.8 °F 87% 29.67 in 10.0 mi WSW 11.5 mph 21.9 mph N/A   Overcast
8:15 AM 37.4 °F 29.8 °F 33.8 °F 87% 29.68 in 10.0 mi WSW 11.5 mph 16.1 mph N/A   Overcast
8:35 AM 37.4 °F 30.8 °F 33.8 °F 87% 29.69 in 10.0 mi WSW 9.2 mph 18.4 mph N/A   Overcast
8:55 AM 37.4 °F 30.8 °F 33.8 °F 87% 29.69 in 10.0 mi SW 9.2 mph - N/A Rain Light Rain
9:15 AM 37.4 °F 30.8 °F 33.8 °F 87% 29.69 in 10.0 mi WSW 9.2 mph - N/A   Overcast
9:35 AM 37.4 °F 30.8 °F 33.8 °F 87% 29.69 in 10.0 mi WSW 9.2 mph - N/A   Overcast
9:55 AM 39.2 °F 32.5 °F 33.8 °F 81% 29.69 in 10.0 mi SW 10.4 mph 17.3 mph N/A   Mostly Cloudy
10:15 AM 39.2 °F 32.0 °F 33.8 °F 81% 29.69 in 10.0 mi SW 11.5 mph 20.7 mph N/A   Overcast
11:15 AM 39.2 °F 32.0 °F 33.8 °F 81% 29.69 in 10.0 mi SW 11.5 mph 17.3 mph N/A   Overcast
11:35 AM 39.2 °F 32.0 °F 32.0 °F 75% 29.69 in 10.0 mi SW 11.5 mph - N/A   Overcast
11:55 AM 39.2 °F 31.6 °F 32.0 °F 75% 29.69 in 10.0 mi WSW 12.7 mph - N/A   Overcast
12:15 PM 39.2 °F 33.0 °F 32.0 °F 75% 29.69 in 10.0 mi SW 9.2 mph 20.7 mph N/A   Overcast
12:35 PM 39.2 °F 32.0 °F 32.0 °F 75% 29.68 in 10.0 mi WSW 11.5 mph 19.6 mph N/A   Overcast
12:55 PM 37.4 °F 30.3 °F 33.8 °F 87% 29.67 in 10.0 mi WSW 10.4 mph - N/A   Overcast
1:15 PM 39.2 °F 33.6 °F 32.0 °F 75% 29.67 in 10.0 mi SW 8.1 mph 18.4 mph N/A   Overcast
1:35 PM 39.2 °F 30.5 °F 32.0 °F 75% 29.67 in 10.0 mi WSW 16.1 mph 25.3 mph N/A   Overcast
1:55 PM 39.2 °F 30.5 °F 32.0 °F 75% 29.66 in 10.0 mi SW 16.1 mph 19.6 mph N/A   Overcast
2:15 PM 41.0 °F 36.4 °F 32.0 °F 70% 29.66 in 10.0 mi SW 6.9 mph - N/A   Overcast
2:35 PM 41.0 °F 34.7 °F 32.0 °F 70% 29.66 in 10.0 mi SW 10.4 mph 20.7 mph N/A   Overcast
2:55 PM 39.2 °F 31.2 °F 32.0 °F 75% 29.66 in 10.0 mi SW 13.8 mph - N/A   Overcast
3:15 PM 39.2 °F 31.6 °F 32.0 °F 75% 29.66 in 10.0 mi WSW 12.7 mph - N/A   Overcast
3:35 PM 39.2 °F 32.5 °F 32.0 °F 75% 29.66 in 10.0 mi SW 10.4 mph - N/A   Overcast
3:55 PM 39.2 °F 31.2 °F 32.0 °F 75% 29.66 in 10.0 mi WSW 13.8 mph 18.4 mph N/A   Overcast
4:15 PM 39.2 °F 32.5 °F 32.0 °F 75% 29.67 in 10.0 mi West 10.4 mph - N/A   Overcast
4:35 PM 39.2 °F 33.6 °F 32.0 °F 75% 29.67 in 10.0 mi WSW 8.1 mph - N/A   Overcast
4:55 PM 39.2 °F 32.5 °F 32.0 °F 75% 29.67 in 10.0 mi SW 10.4 mph - N/A   Overcast
5:15 PM 39.2 °F 31.2 °F 32.0 °F 75% 29.68 in 10.0 mi WSW 13.8 mph 18.4 mph N/A   Overcast
5:35 PM 37.4 °F 29.8 °F 32.0 °F 81% 29.69 in 9.0 mi WSW 11.5 mph 19.6 mph N/A   Overcast
5:55 PM 37.4 °F 30.3 °F 32.0 °F 81% 29.69 in 8.0 mi SW 10.4 mph - N/A   Overcast
6:15 PM 37.4 °F 27.8 °F 33.8 °F 87% 29.71 in 6.0 mi West 17.3 mph - N/A Rain Light Rain
6:35 PM 35.6 °F 28.0 °F 33.8 °F 93% 29.71 in 4.0 mi SW 10.4 mph - N/A Rain Light Rain
6:55 PM 35.6 °F 28.6 °F 35.6 °F 100% 29.71 in 2.5 mi SW 9.2 mph - N/A   Light Drizzle
7:15 PM 35.6 °F 29.9 °F 35.6 °F 100% 29.71 in 4.0 mi SW 6.9 mph - N/A   Overcast
7:35 PM 35.6 °F 29.2 °F 35.6 °F 100% 29.71 in 3.0 mi SW 8.1 mph - N/A   Overcast
7:55 PM 35.6 °F 29.2 °F 35.6 °F 100% 29.71 in 10.0 mi WSW 8.1 mph - N/A   Overcast
8:15 PM 35.6 °F 28.6 °F 35.6 °F 100% 29.71 in 8.0 mi SW 9.2 mph - N/A   Mostly Cloudy
8:35 PM 33.8 °F 26.4 °F 33.8 °F 100% 29.71 in 4.0 mi SW 9.2 mph 16.1 mph N/A Rain Light Rain
8:55 PM 33.8 °F 27.0 °F 33.8 °F 100% 29.70 in 6.0 mi SW 8.1 mph - N/A Rain Light Rain
9:15 PM 33.8 °F 24.8 °F 33.8 °F 100% 29.70 in 7.0 mi SW 12.7 mph 16.1 mph N/A   Mostly Cloudy
9:55 PM 33.8 °F 27.0 °F 33.8 °F 100% 29.71 in 5.0 mi WSW 8.1 mph - 0.06 in   Overcast
10:15 PM 33.8 °F 25.3 °F 33.8 °F 100% 29.71 in 4.0 mi SW 11.5 mph - 0.01 in Snow Light Snow
10:35 PM 32.0 °F 24.2 °F 32.0 °F 100% 29.71 in 1.0 mi West 9.2 mph 16.1 mph 0.36 in Snow Light Snow
10:55 PM 32.0 °F 23.0 °F 32.0 °F 100% 29.71 in 2.5 mi West 11.5 mph 17.3 mph 0.46 in Snow Light Snow
11:15 PM 32.0 °F 20.8 °F 32.0 °F 100% 29.71 in 1.2 mi West 17.3 mph 24.2 mph 0.19 in Snow Light Snow
11:35 PM 32.0 °F 23.0 °F 32.0 °F 100% 29.70 in 1.2 mi West 11.5 mph 18.4 mph 0.44 in Snow Light Snow
11:55 PM 32.0 °F 23.0 °F 32.0 °F 100% 29.70 in 4.0 mi WSW 11.5 mph - 0.53 in Snow Light Snow